[[{"header":{"parameterUnit":"m.s-1","parameterCategory":1,"la1":30.2991,"la2":30.254,"lo1":-89.0895,"lo2":-89.0444,"dy":0.0017,"dx":0.0017,"nx":28,"ny":28,"refTime":"2024-12-16T03:00:00:Z","depth":0,"parameterNumber":2,"parameterNumberName":"U-component_of_WINDS"},"data":[0,0,0,0,0,0,0,0,0,0,0,0,0,0,0,0,0,0,0,0,0,0,0,0,0,0,0,0,0,0,0,0,0,0,0,0,0,0,0,0,0,0,0,0,0,0,0,0,0,0,0,0,0,0,0,0,0,0,-1.1785,-1.1785,0,-1.1766,-1.1766,-1.1766,-1.1697,-1.1695,-1.1694,-1.1692,-1.1674,-1.1675,-1.1676,0,0,0,0,0,0,0,0,0,0,0,0,0,-1.1763,-1.1764,-1.1785,-1.1785,-1.1784,-1.1766,-1.1766,-1.1766,-1.1697,-1.1695,-1.1693,-1.1691,-1.1674,-1.1675,-1.1676,0,0,0,0,0,0,0,0,0,0,0,0,0,-1.1761,-1.1764,-1.1785,-1.1748,-1.1745,-1.1766,-1.1766,-1.1765,-1.1697,-1.1695,-1.1693,-1.1691,-1.1673,-1.1675,-1.1676,-1.1732,0,0,-1.1681,-1.1681,0,0,0,0,0,0,0,0,-1.1762,-1.1762,-1.1754,-1.1751,-1.1747,-1.1731,-1.1751,-1.1754,-1.1698,-1.1715,-1.1692,-1.1689,-1.1695,-1.1695,-1.1696,-1.1732,-1.1731,-1.1681,-1.1682,-1.1682,-1.1683,0,0,0,0,0,0,0,-1.1762,-1.1763,-1.1777,-1.1754,-1.1749,-1.1733,-1.173,-1.1752,-1.1719,-1.1714,-1.1709,-1.1707,-1.1693,-1.1695,-1.1695,-1.1731,-1.1681,-1.1682,-1.1683,-1.1684,-1.1812,-1.1815,0,0,0,0,0,0,-1.1767,-1.1763,-1.1778,-1.1777,-1.1748,-1.1735,-1.1732,-1.1739,-1.1718,-1.1713,-1.1709,-1.1704,-1.1694,-1.1694,-1.1695,-1.176,-1.1682,-1.1684,-1.1685,-1.181,-1.1813,-1.1815,0,0,0,0,0,0,-1.1767,-1.1769,-1.1779,-1.1769,-1.1769,-1.1738,-1.1746,-1.174,-1.1742,-1.1715,-1.1709,-1.1718,-1.1692,-1.1692,-1.1724,-1.1758,-1.1684,-1.1686,-1.1807,-1.1811,-1.1814,-1.1891,0,0,0,0,0,0,-1.1766,-1.1769,-1.179,-1.177,-1.1769,-1.1808,-1.1748,-1.1741,-1.1744,-1.1737,-1.1721,-1.1716,-1.169,-1.1722,-1.1725,-1.1759,-1.1687,-1.1803,-1.1808,-1.1813,-1.1885,-1.1897,-1.1907,0,0,0,0,0,-1.1766,-1.1812,-1.1791,-1.1793,-1.1795,-1.181,-1.181,-1.1779,-1.1747,-1.1768,-1.1751,-1.1717,-1.1754,-1.1726,-1.1729,-1.1764,-1.1801,-1.1807,-1.1813,-1.188,-1.1894,-1.1906,0,0,0,0,0,0,-1.1837,-1.1809,-1.1785,-1.1826,-1.1821,-1.1799,-1.1824,-1.1795,-1.1799,-1.1792,-1.1753,-1.175,-1.1787,-1.1778,-1.1747,-1.1817,-1.1772,-1.1778,-1.1822,-1.1835,-1.1846,-1.1848,-1.1688,0,0,0,0,0,-1.1858,-1.1873,-1.1847,-1.1886,-1.1884,-1.1855,-1.186,-1.1837,-1.183,-1.1827,-1.1812,-1.1808,-1.1818,-1.1826,-1.1834,-1.1883,-1.1879,-1.1908,-1.1919,-1.1928,-1.1935,-1.1961,-1.1974,-1.1834,-1.1834,-1.1834,0,0,-1.1901,-1.1887,-1.1898,-1.19,-1.1893,-1.191,-1.1853,-1.1873,-1.1885,-1.183,-1.1859,-1.1848,-1.1841,-1.1881,-1.1898,-1.1875,-1.1973,-1.1936,-1.1943,-1.1945,-1.1968,-1.1982,-1.1994,-1.1838,-1.1837,-1.1837,0,0,-1.1987,-1.1978,-1.2009,-1.2004,-1.1994,-1.1974,-1.1982,-1.1964,-1.1955,-1.1983,-1.1942,-1.1957,-1.1975,-1.1972,-1.1972,-1.2059,-1.2028,-1.2062,-1.2119,-1.2145,-1.2157,-1.2166,-1.2198,-1.221,-1.2069,-1.2069,-1.2069,0,-1.2041,-1.2065,-1.2029,-1.2052,-1.2055,-1.2005,-1.2038,-1.2034,-1.2028,-1.2031,-1.2005,-1.2028,-1.2019,-1.2059,-1.208,-1.2082,-1.209,-1.2064,-1.2158,-1.2167,-1.2175,-1.2206,-1.2218,-1.2073,-1.2073,-1.2072,-1.2072,0,-1.2133,-1.2149,-1.2176,-1.2172,-1.2177,-1.2204,-1.2174,-1.2184,-1.216,-1.2143,-1.2173,-1.2161,-1.2166,-1.2173,-1.215,-1.221,-1.2196,-1.2164,-1.2118,-1.2194,-1.2221,-1.2233,-1.2079,-1.2078,-1.2077,-1.2075,0,0,-1.2264,-1.224,-1.225,-1.2248,-1.2234,-1.2247,-1.2273,-1.2278,-1.2287,-1.2285,-1.2306,-1.2323,-1.2294,-1.2295,-1.2271,-1.2294,-1.2364,-1.2259,-1.2258,-1.228,-1.2431,-1.2456,-1.247,-1.2343,-1.2345,-1.2347,-1.2432,0,-1.2347,-1.2389,-1.2359,-1.2407,-1.2423,-1.2376,-1.2399,-1.2393,-1.2379,-1.239,-1.2374,-1.2387,-1.2347,-1.2347,-1.2368,-1.2351,-1.2394,-1.2345,-1.2364,-1.2365,-1.2368,-1.2484,-1.251,-1.2592,-1.2443,-1.2445,-1.2446,0,-1.245,-1.2452,-1.2502,-1.2486,-1.2491,-1.2512,-1.2515,-1.2526,-1.2519,-1.2507,-1.2508,-1.2478,-1.2503,-1.2457,-1.2492,-1.2459,-1.2464,-1.2458,-1.246,-1.2462,-1.2411,-1.249,-1.2617,-1.263,-1.2462,-1.2461,-1.246,0,-1.2542,-1.2558,-1.2589,-1.2589,-1.257,-1.2586,-1.258,-1.257,-1.2576,-1.2578,-1.2581,-1.2587,-1.259,-1.2596,-1.2568,-1.2537,-1.2607,-1.2558,-1.2598,-1.2599,-1.2616,-1.2615,-1.2747,-1.2618,-1.2618,-1.2618,-1.2617,0,-1.2639,-1.2671,-1.2631,-1.2651,-1.2686,-1.2651,-1.2687,-1.2675,-1.2668,-1.2685,-1.2645,-1.2662,-1.2625,-1.2638,-1.2617,-1.265,-1.2651,-1.2643,-1.2637,-1.2647,-1.2648,-1.2651,-1.2645,-1.2621,-1.262,-1.262,-1.2619,0,-1.2748,-1.2722,-1.2754,-1.2734,-1.273,-1.2757,-1.2741,-1.2758,-1.2741,-1.2763,-1.2767,-1.274,-1.2754,-1.2727,-1.2737,-1.2723,-1.2769,-1.2754,-1.2772,-1.2768,-1.281,-1.2807,-1.2948,-1.2966,-1.2825,-1.2827,-1.2828,0,-1.2812,-1.2836,-1.2819,-1.2828,-1.2823,-1.2837,-1.2843,-1.2809,-1.2817,-1.2811,-1.283,-1.2841,-1.2848,-1.2872,-1.2854,-1.2862,-1.2847,-1.2896,-1.2848,-1.2858,-1.285,-1.2849,-1.2852,-1.2907,-1.2908,-1.291,-1.2911,0,-1.2929,-1.2915,-1.2924,-1.2929,-1.2937,-1.2939,-1.2939,-1.2948,-1.2913,-1.2923,-1.2937,-1.2942,-1.2953,-1.2965,-1.2969,-1.2962,-1.2932,-1.2926,-1.2936,-1.2947,-1.2957,-1.2953,-1.28,-1.2923,-1.2922,-1.2921,-1.292,-1.292,-1.3018,-1.3038,-1.3029,-1.3041,-1.3037,-1.3038,-1.3054,-1.3039,-1.3049,-1.3056,-1.3035,-1.3054,-1.3047,-1.3049,-1.3046,-1.3061,-1.3039,-1.3053,-1.3057,-1.3061,-1.3069,-1.2954,-1.3062,-1.3061,-1.3061,-1.306,-1.306,0,-1.3134,-1.3126,-1.3137,-1.3138,-1.3148,-1.3117,-1.3115,-1.3126,-1.3143,-1.3139,-1.3146,-1.3163,-1.3174,-1.3157,-1.3165,-1.3181,-1.3167,-1.3184,-1.3183,-1.3182,-1.3087,-1.3078,-1.3195,-1.3195,-1.3195,-1.3195,-1.3195,-1.3195,-1.3195,-1.3227,-1.3212,-1.3242,-1.3234,-1.3252,-1.3254,-1.3255,-1.3252,-1.3272,-1.3281,-1.327,-1.3261,-1.3268,-1.3278,-1.3272,-1.3278,-1.33,-1.3291,-1.3202,-1.3189,-1.3176,-1.3168,-1.3302,-1.3302,-1.3384,-1.3385,-1.3386]},{"header":{"parameterUnit":"m.s-1","parameterCategory":1,"la1":30.2991,"la2":30.254,"lo1":-89.0895,"lo2":-89.0444,"dy":0.0017,"dx":0.0017,"nx":28,"ny":28,"refTime":"2024-12-16T03:00:00:Z","depth":0,"parameterNumber":3,"parameterNumberName":"V-component_of_WINDS"},"data":[0,0,0,0,0,0,0,0,0,0,0,0,0,0,0,0,0,0,0,0,0,0,0,0,0,0,0,0,0,0,0,0,0,0,0,0,0,0,0,0,0,0,0,0,0,0,0,0,0,0,0,0,0,0,0,0,0,0,-0.8033,-0.8034,0,-0.8068,-0.8069,-0.8069,-0.8023,-0.8021,-0.8019,-0.8018,-0.8055,-0.8058,-0.806,0,0,0,0,0,0,0,0,0,0,0,0,0,-0.7926,-0.7928,-0.8033,-0.8034,-0.8034,-0.8068,-0.8069,-0.8069,-0.8023,-0.8021,-0.8019,-0.8017,-0.8054,-0.8057,-0.806,0,0,0,0,0,0,0,0,0,0,0,0,0,-0.7968,-0.7928,-0.8033,-0.8015,-0.8014,-0.8068,-0.8069,-0.8069,-0.8023,-0.8021,-0.8018,-0.8016,-0.8053,-0.8057,-0.8061,-0.8135,0,0,-0.8073,-0.8074,0,0,0,0,0,0,0,0,-0.7965,-0.7972,-0.8017,-0.8016,-0.8015,-0.8038,-0.8045,-0.8092,-0.8024,-0.802,-0.8017,-0.8015,-0.8052,-0.8056,-0.8068,-0.8137,-0.8139,-0.8073,-0.8075,-0.8077,-0.8078,0,0,0,0,0,0,0,-0.7963,-0.797,-0.8047,-0.8018,-0.8017,-0.8005,-0.8008,-0.8053,-0.805,-0.802,-0.8017,-0.8021,-0.8051,-0.8064,-0.8068,-0.8139,-0.8073,-0.8076,-0.8079,-0.808,-0.8271,-0.8273,0,0,0,0,0,0,-0.7962,-0.7968,-0.8046,-0.8048,-0.7983,-0.8009,-0.8013,-0.8033,-0.8049,-0.8049,-0.8023,-0.8019,-0.8059,-0.8064,-0.8069,-0.8158,-0.8077,-0.8081,-0.8083,-0.8268,-0.8271,-0.8274,0,0,0,0,0,0,-0.796,-0.7969,-0.8045,-0.8007,-0.8016,-0.8013,-0.8037,-0.8035,-0.8049,-0.8052,-0.8051,-0.8038,-0.8057,-0.8064,-0.8119,-0.8159,-0.8082,-0.8086,-0.8265,-0.8269,-0.8273,-0.8335,0,0,0,0,0,0,-0.7957,-0.7969,-0.7997,-0.8008,-0.8018,-0.8094,-0.804,-0.8038,-0.8056,-0.805,-0.8065,-0.8065,-0.8056,-0.8113,-0.8123,-0.8162,-0.8089,-0.8261,-0.8266,-0.8271,-0.833,-0.8341,-0.8351,0,0,0,0,0,-0.7953,-0.8014,-0.7999,-0.8009,-0.8054,-0.8096,-0.8102,-0.8089,-0.8059,-0.8088,-0.8089,-0.8065,-0.8152,-0.812,-0.813,-0.8171,-0.8259,-0.8265,-0.8271,-0.8325,-0.8339,-0.8351,0,0,0,0,0,0,-0.8009,-0.8015,-0.7999,-0.8065,-0.808,-0.8088,-0.8124,-0.8105,-0.813,-0.8124,-0.8107,-0.8111,-0.817,-0.8175,-0.8139,-0.8243,-0.82,-0.8209,-0.8238,-0.8251,-0.8262,-0.826,-0.8092,0,0,0,0,0,-0.8029,-0.8063,-0.8066,-0.8124,-0.8133,-0.8127,-0.8145,-0.8134,-0.815,-0.8156,-0.8161,-0.8178,-0.8209,-0.823,-0.8259,-0.8329,-0.8332,-0.8363,-0.8373,-0.8382,-0.839,-0.8428,-0.8442,-0.8294,-0.8294,-0.8294,0,0,-0.807,-0.8078,-0.8101,-0.8136,-0.8146,-0.8182,-0.8133,-0.8173,-0.82,-0.8162,-0.8215,-0.8219,-0.8236,-0.8299,-0.8327,-0.8306,-0.8431,-0.839,-0.8396,-0.84,-0.8436,-0.845,-0.8462,-0.8299,-0.8298,-0.8297,0,0,-0.8165,-0.8174,-0.8223,-0.8235,-0.8251,-0.8246,-0.8258,-0.8269,-0.827,-0.8322,-0.8294,-0.8325,-0.8379,-0.8392,-0.8406,-0.8503,-0.8482,-0.8513,-0.8569,-0.8606,-0.8617,-0.8628,-0.8663,-0.8676,-0.852,-0.8521,-0.8521,0,-0.8216,-0.8268,-0.8251,-0.8293,-0.8309,-0.8275,-0.8325,-0.8337,-0.8362,-0.8374,-0.8349,-0.8415,-0.8424,-0.849,-0.8514,-0.8526,-0.8539,-0.8512,-0.8617,-0.8627,-0.8636,-0.867,-0.8684,-0.8524,-0.8524,-0.8523,-0.8523,0,-0.8329,-0.8366,-0.8404,-0.8428,-0.8448,-0.8494,-0.8484,-0.8506,-0.8492,-0.849,-0.8543,-0.8552,-0.8582,-0.8596,-0.8583,-0.866,-0.8646,-0.8619,-0.8576,-0.8654,-0.8686,-0.8699,-0.853,-0.8528,-0.8527,-0.8526,0,0,-0.8464,-0.8476,-0.8491,-0.8501,-0.8515,-0.8543,-0.8587,-0.8615,-0.8635,-0.8652,-0.8689,-0.8734,-0.8708,-0.8724,-0.8712,-0.8744,-0.8821,-0.8713,-0.8713,-0.8734,-0.8907,-0.8929,-0.8944,-0.8806,-0.8808,-0.881,-0.8906,0,-0.8559,-0.8635,-0.862,-0.8694,-0.8727,-0.8694,-0.8732,-0.8745,-0.8743,-0.8772,-0.877,-0.8803,-0.8766,-0.8775,-0.8805,-0.8806,-0.8856,-0.8798,-0.8841,-0.8843,-0.884,-0.8961,-0.8984,-0.9074,-0.8918,-0.892,-0.8922,0,-0.8682,-0.8703,-0.8781,-0.8788,-0.8802,-0.8836,-0.8861,-0.8888,-0.8901,-0.8897,-0.8914,-0.8895,-0.8938,-0.8892,-0.8951,-0.8912,-0.8928,-0.8931,-0.8934,-0.8939,-0.8889,-0.8971,-0.9103,-0.9117,-0.8941,-0.8939,-0.8938,0,-0.8774,-0.8821,-0.8874,-0.8883,-0.8894,-0.8918,-0.8924,-0.8935,-0.8952,-0.8973,-0.8984,-0.901,-0.9025,-0.9045,-0.9033,-0.9001,-0.9095,-0.9048,-0.9094,-0.9095,-0.9118,-0.9117,-0.9256,-0.9125,-0.9124,-0.9124,-0.9124,0,-0.8883,-0.8932,-0.8915,-0.8948,-0.9001,-0.8982,-0.9036,-0.9037,-0.9046,-0.9078,-0.9051,-0.9081,-0.9063,-0.9092,-0.9083,-0.9134,-0.914,-0.9139,-0.9137,-0.9143,-0.9144,-0.9156,-0.915,-0.9128,-0.9127,-0.9126,-0.9126,0,-0.8996,-0.8987,-0.9042,-0.9046,-0.9048,-0.9087,-0.9091,-0.9121,-0.9116,-0.9157,-0.9166,-0.9159,-0.9191,-0.9181,-0.9216,-0.921,-0.9275,-0.9264,-0.9271,-0.9269,-0.9317,-0.9313,-0.947,-0.949,-0.9344,-0.9345,-0.9346,0,-0.9068,-0.9105,-0.9113,-0.9132,-0.9139,-0.9171,-0.9188,-0.917,-0.919,-0.9206,-0.9235,-0.9264,-0.9288,-0.9342,-0.934,-0.9367,-0.9357,-0.9409,-0.9361,-0.9366,-0.9359,-0.9358,-0.9362,-0.942,-0.9422,-0.9423,-0.9425,0,-0.9198,-0.919,-0.9216,-0.9241,-0.9262,-0.928,-0.9296,-0.9314,-0.9296,-0.932,-0.9352,-0.937,-0.9405,-0.9436,-0.946,-0.9465,-0.9443,-0.9439,-0.9452,-0.946,-0.9464,-0.9464,-0.93,-0.9437,-0.9435,-0.9435,-0.9434,-0.9433,-0.9293,-0.9324,-0.9334,-0.9364,-0.9374,-0.9389,-0.9417,-0.9415,-0.9442,-0.947,-0.9457,-0.9495,-0.9506,-0.9535,-0.9543,-0.9573,-0.9553,-0.957,-0.9575,-0.9581,-0.9587,-0.9457,-0.9577,-0.9577,-0.9576,-0.9576,-0.9576,0,-0.9422,-0.9427,-0.9454,-0.9477,-0.95,-0.9474,-0.949,-0.9512,-0.9545,-0.9557,-0.958,-0.9617,-0.9646,-0.9646,-0.9672,-0.9696,-0.9686,-0.9704,-0.9703,-0.9705,-0.9603,-0.9591,-0.9711,-0.9711,-0.9711,-0.9711,-0.9711,-0.9711,-0.9493,-0.9544,-0.9537,-0.9593,-0.9596,-0.9633,-0.9644,-0.9658,-0.9667,-0.971,-0.9734,-0.9732,-0.9739,-0.9766,-0.9791,-0.979,-0.9802,-0.9824,-0.982,-0.9725,-0.9712,-0.9699,-0.9688,-0.9826,-0.9827,-0.9919,-0.992,-0.9921]}]]